Overview Statistics Trail Chart Weather Telemetry Raw packets
 

This is the latest recevied weather packets stored in our database for station/object KB1RMA-4. If no packets are shown the sender has not sent any weather packets the latest 10 day(s).

<< 50 51 52 53 54 55 56 >>
Time Temp. Humidity Pressure Rain* Wind** Luminosity Snow
1788294546 18.89° C 85% 1018.3 hPa 0 mm - 149 W/m² -
1788294241 18.89° C 85% 1018.4 hPa 0 mm - 126 W/m² -
1788293937 18.89° C 85% 1018.4 hPa 0 mm - 135 W/m² -
1788293636 18.89° C 85% 1018.3 hPa 0 mm - 114 W/m² -
1788293335 18.89° C 85% 1018.2 hPa 0 mm - 106 W/m² -
1788293031 18.89° C 85% 1018.1 hPa 0 mm - 93 W/m² -
1788292730 18.89° C 85% 1018.4 hPa 0 mm - 79 W/m² -
1788292429 18.89° C 85% 1018.2 hPa 0 mm - 96 W/m² -
1788292125 18.89° C 85% 1018.4 hPa 0 mm - 94 W/m² -
1788291824 18.89° C 85% 1018.5 hPa 0 mm - 126 W/m² -
1788291540 18.89° C 85% 1018.4 hPa 0 mm - 145 W/m² -
1788291219 18.89° C 85% 1018.6 hPa 0 mm - 134 W/m² -
1788290914 18.89° C 85% 1018.4 hPa 0 mm - 159 W/m² -
1788290610 18.89° C 85% 1018.4 hPa 0 mm - 160 W/m² -
1788290306 18.89° C 85% 1018.5 hPa 0 mm - 151 W/m² -
1788290001 18.89° C 85% 1018.4 hPa 0 mm - 142 W/m² -
1788289698 18.89° C 85% 1018.7 hPa 0 mm - 130 W/m² -
1788289397 18.89° C 85% 1018.5 hPa 0 mm - 136 W/m² -
1788289095 18.89° C 85% 1018.5 hPa 0 mm - 172 W/m² -
1788288795 18.89° C 85% 1018.6 hPa 0 mm - 160 W/m² -
1788288503 18.33° C 85% 1018.5 hPa 0 mm - 150 W/m² -
1788288186 18.33° C 85% 1018.3 hPa 0 mm - 168 W/m² -
1788287881 18.33° C 85% 1018.4 hPa 0 mm - 176 W/m² -
1788287581 18.89° C 85% 1018.4 hPa 0 mm - 178 W/m² -
1788287277 18.89° C 86% 1018.5 hPa 0 mm - 170 W/m² -

* Rain latest hour (hover to see other rain measurements)
** Current wind speed in m/s (hover to see current wind gust speed)